Weather History for Renton, WA

Change the Weather History Date:

Sunday, January 26, 2014

  Actual Average Record
Temperature  
Mean Temperature 38 °F -  
Max Temperature 46 °F 47 °F 46 °F (2014)
Min Temperature 30 °F 37 °F 30 °F (2014)
Degree Days  
Heating Degree Days 27    
Moisture  
Dew Point 34 °F    
Average Humidity 95    
Maximum Humidity 100    
Minimum Humidity 71    
Precipitation  
Precipitation 0.00 in - - ()
Sea Level Pressure  
Sea Level Pressure 30.19 in    
Wind  
Wind Speed 1 mph (WNW)    
Max Wind Speed 7 mph    
Max Gust Speed -    
Visibility 5 miles    
Events Fog    
Averages and records for this station are not official NWS values.
T = Trace of Precipitation, MM = Missing Value Source: NWS Daily Summary

Daily Weather History Graph

Daily Weather History Graph

Search for Another Location

Airport:

Trip Planner

Search our weather history database for the weather conditions in past years. The results will help you decide how hot, cold, wet, or windy it might be!

Date:

Astronomy

Jan. 26, 2014 Rise Set
Actual Time 7:42 AM PST 5:01 PM PST
Civil Twilight 7:08 AM PST 5:34 PM PST
Nautical Twilight 6:31 AM PST 6:12 PM PST
Astronomical Twilight 5:55 AM PST 6:48 PM PST
Moon 3:27 AM PST (1/26) 12:53 PM PST (1/26)
Length of Visible Light 10h 26m
Length of Day
9h 19m
Waning Crescent, 23% of the Moon is Illuminated
Jan 26
Waning Crescent
Jan 30
New
Feb 6
First Quarter
Feb 14
Full
Feb 22
Last Quarter

Hourly Weather History & Observations

Time (PST) Temp. Windchill Dew Point Humidity Pressure Visibility Wind Dir Wind Speed Gust Speed Precip Events Conditions
12:53 AM 33.1 °F - 32.0 °F 96% 30.29 in 6.0 mi Calm Calm - N/A   Clear
1:53 AM 32.0 °F - 30.9 °F 96% 30.28 in 6.0 mi Calm Calm - N/A   Clear
2:53 AM 32.0 °F - 30.9 °F 96% 30.29 in 6.0 mi Calm Calm - N/A   Clear
3:53 AM 30.9 °F - 30.0 °F 96% 30.28 in 6.0 mi Calm Calm - N/A   Clear
4:53 AM 30.9 °F - 30.0 °F 96% 30.27 in 6.0 mi Calm Calm - N/A   Clear
5:22 AM 30.2 °F - 30.2 °F 100% 30.25 in 6.0 mi Calm Calm - N/A   Scattered Clouds
5:30 AM 30.2 °F - 30.2 °F 100% 30.25 in 6.0 mi Calm Calm - N/A   Mostly Cloudy
5:53 AM 30.9 °F - 30.0 °F 96% 30.27 in 6.0 mi Calm Calm - N/A   Overcast
6:53 AM 32.0 °F - 32.0 °F 100% 30.26 in 1.8 mi Calm Calm - N/A   Overcast
7:04 AM 32.0 °F - 32.0 °F 100% 30.25 in 0.8 mi Calm Calm - N/A   Overcast
7:53 AM 32.0 °F - 32.0 °F 100% 30.25 in 0.2 mi Calm Calm - N/A Fog Fog
8:53 AM 33.1 °F - 33.1 °F 100% 30.24 in 0.2 mi Calm Calm - N/A Fog Fog
9:53 AM 35.1 °F - 35.1 °F 100% 30.23 in 0.2 mi Calm Calm - N/A Fog Fog
10:53 AM 36.0 °F 32.1 °F 36.0 °F 100% 30.23 in 2.5 mi WNW 4.6 mph - N/A   Overcast
11:53 AM 37.9 °F - 37.0 °F 97% 30.20 in 5.0 mi Calm Calm - N/A   Mostly Cloudy
12:14 PM 39.2 °F - 37.4 °F 93% 30.18 in 4.0 mi Calm Calm - N/A   Scattered Clouds
12:53 PM 43.0 °F 40.3 °F 37.9 °F 82% 30.19 in 7.0 mi NW 4.6 mph - N/A   Clear
1:53 PM 46.0 °F - 37.0 °F 71% 30.17 in 10.0 mi Calm Calm - N/A   Clear
2:53 PM 46.0 °F 42.5 °F 39.0 °F 76% 30.16 in 9.0 mi NNW 6.9 mph - N/A   Clear
3:53 PM 45.0 °F 43.5 °F 37.9 °F 76% 30.15 in 9.0 mi NW 3.5 mph - N/A   Clear
4:53 PM 43.0 °F 41.3 °F 37.9 °F 82% 30.13 in 7.0 mi WNW 3.5 mph - N/A   Clear
5:53 PM 41.0 °F - 37.9 °F 89% 30.12 in 7.0 mi Calm Calm - N/A   Clear
6:53 PM 37.9 °F - 37.0 °F 97% 30.14 in 6.0 mi Calm Calm - N/A   Clear
7:53 PM 37.0 °F - 36.0 °F 96% 30.14 in 5.0 mi Calm Calm - N/A   Clear
8:41 PM 35.6 °F - 35.6 °F 100% 30.12 in 5.0 mi Calm Calm - N/A   Partly Cloudy
8:53 PM 36.0 °F - 35.1 °F 97% 30.14 in 5.0 mi Calm Calm - N/A   Clear
9:01 PM 35.6 °F - 35.6 °F 100% 30.12 in 5.0 mi Calm Calm - N/A   Partly Cloudy
9:53 PM 35.1 °F - 34.0 °F 96% 30.15 in 4.0 mi Calm Calm - N/A   Scattered Clouds
10:00 PM 35.6 °F - 33.8 °F 93% 30.13 in 3.0 mi Calm Calm - N/A   Mostly Cloudy
10:53 PM 35.1 °F - 35.1 °F 100% 30.14 in 4.0 mi Calm Calm - N/A   Overcast
11:07 PM 35.6 °F - 35.6 °F 100% 30.13 in 4.0 mi Calm Calm - N/A   Overcast
11:38 PM 35.6 °F - 35.6 °F 100% 30.13 in 2.0 mi Calm Calm - N/A   Overcast
11:48 PM 35.6 °F 32.8 °F 35.6 °F 100% 30.14 in 1.2 mi SSW 3.5 mph - N/A   Overcast
11:53 PM 37.0 °F - 37.0 °F 100% 30.16 in 0.5 mi Calm Calm - N/A Fog Fog